Starlink 11586

operational
NORAD ID: 63009 Int'l Des: 2025-032 Owner: SPXS Country: US Constellation: starlink
LEOCIRCULAR

关于 Starlink 11586

正在加载描述...

实时位置

正在加载3D地球...

即将过境

高度历史

Altitude vs Time

uPlot chart will show altitude changes over time

两行轨道根数

1 63009U 25032E 25352.30307358 .00171256 00000-0 13069-2 0 9999
2 63009 43.0024 325.9284 0002096 273.5298 86.5330 15.70911019 49416
Epoch: Dec 18, 2025 • Age: 26 hours

当前状态

高度 359.4 km
速度 7.70 km/s
星下点 41.62°N, 165.06°W
发射日期 Feb 15, 2025
运行时间 0.8 years
类型 internet

技术详情

分类 Payload
质量 960.00 kg
干质量 910.00 kg
总质量 960.00 kg
长度 0.30 m
直径 4.10 m
跨度 29.00 m
形状 Box + pan
制造商 SPXS
平台类型 Starlink V2MD
阶段状态 In Orbit
所有者/国家 SPXS/US

大型星座

Loading constellations...